[Iaude] MPEC G180: 2024 GV4 [a=1.81,e=0.33,i=9.1,H=21.3]
    mpec at cfa.harvard.edu 
    mpec at cfa.harvard.edu
       
    Sat Apr 13 03:17:39 EDT 2024
    
    
  
M.P.E.C. 2024-G180                               Issued 2024 April 13, 07:16 UT
     The Minor Planet Electronic Circulars contain information on unusual
         minor planets, routine data on comets and natural satellites,
         and occasional editorial announcements.  They are published
    on behalf of Division F of the International Astronomical Union by the
          Minor Planet Center, Smithsonian Astrophysical Observatory,
                          Cambridge, MA 02138, U.S.A.
			  
             Prepared using the Tamkin Foundation Computer Network
                              MPC at CFA.HARVARD.EDU
            URL https://www.minorplanetcenter.net/    ISSN 1523-6714
                                    2024 GV4                                    
Observations:
     K24G04V KC2024 04 04.37425113 07 53.752+13 06 07.76         22.35GVEG180F52
     K24G04V*3C2024 04 07.86986 13 02 51.534+13 19 34.74         21.2 G EG180095
     K24G04V 3C2024 04 08.00081 13 02 39.250+13 19 58.51         21.2 G EG180095
     K24G04V 3C2024 04 08.86763 13 01 22.397+13 22 27.82         21.3 G EG180095
     K24G04V 3C2024 04 08.97079 13 01 12.562+13 22 42.81         21.3 G EG180095
     K24G04V 3C2024 04 10.87811 12 58 19.946+13 26 48.17         21.8 G EG180095
     K24G04V 3C2024 04 10.99039 12 58 09.209+13 26 58.82         21.8 G EG180095
     K24G04V  C2024 04 11.30004612 57 41.210+13 27 30.94         21.4 GVEG180H01
     K24G04V  C2024 04 11.30442712 57 40.787+13 27 31.40         21.8 GVEG180H01
     K24G04V  C2024 04 11.31382612 57 39.872+13 27 32.12         21.1 GVEG180H01
     K24G04V  C2024 04 11.32068312 57 39.202+13 27 32.71         21.3 GVEG180H01
     K24G04V KC2024 04 12.18338512 56 20.62 +13 28 34.8          21.3 GXEG180858
     K24G04V KC2024 04 12.19056012 56 19.91 +13 28 35.0          21.2 GXEG180858
     K24G04V KC2024 04 12.20628912 56 18.45 +13 28 35.6          21.0 GXEG180858
     K24G04V  C2024 04 13.26953312 54 39.939+13 29 19.96         21.5 GVEG180H01
     K24G04V  C2024 04 13.27393112 54 39.503+13 29 20.20         21.4 GVEG180H01
     K24G04V  C2024 04 13.28519412 54 38.406+13 29 20.32         21.4 GVEG180H01
     K24G04V  C2024 04 13.29142612 54 37.783+13 29 20.57         21.4 GVEG180H01
Observer details:
095 Crimea-Nauchnyi.  Observer S. Nazarov.  Measurer A. Chernyshov.  0.28-m
    f/2 reflector + CCD, 0.35-m f/5 reflector + CCD.
858 Tebbutt Observatory, Edgewood.  Observer F. B. Zoltowski.  0.51-m f/8.1
    Schmidt-Cassegrain + CCD.
F52 Pan-STARRS 2, Haleakala.  Observers J. Herman, T. Lowe, P. Minguez, A.
    Schultz, I. Smith.  Measurers K. Chambers, T. de Boer, J. Fairlamb, H.
    Gao, M. Huber, C.-C. Lin, E. Magnier, Y. Ramanjooloo, R. Wainscoat, R.
    Weryk.  1.8-m Ritchey-Chretien + CCD.
H01 Magdalena Ridge Observatory, Socorro.  Observers W. H. Ryan, E. V. Ryan.
    Measurer W. H. Ryan.  2.4-m f/8.9 Ritchey-Chretien + CCD.
Orbital elements:
2024 GV4                                                 Earth MOID = 0.2082 AU
Epoch 2024 Mar. 31.0 TT = JDT 2460400.5                 MPC                     
M 311.17714              (2000.0)            P               Q                  
n   0.40614538     Peri.  215.30824     +0.09743855     +0.98560950             
a   1.8058501      Node    60.65006     -0.87280819     +0.15131655             
e   0.3324486      Incl.    9.11810     -0.47823802     -0.07534734             
P   2.43           H   21.34          G   0.15           U   7                  
Residuals in seconds of arc
240404 F52  0.0   0.0     240410 095  0.0   0.6-    240412 858  0.5-  0.1+
240407 095  0.1+  0.2+    240411 H01  0.0   0.0     240412 858  0.6+  0.4-
240408 095  0.5-  0.0     240411 H01  0.1+  0.1+    240413 H01  0.0   0.1-
240408 095  0.4-  0.2+    240411 H01  0.1+  0.0     240413 H01  0.1-  0.1+
240408 095  1.4-  0.9-    240411 H01  0.0   0.0     240413 H01  0.1+  0.1-
240410 095  1.0-  0.7-    240412 858  0.3-  0.4+    240413 H01  0.1-  0.0
Ephemeris:
2024 GV4                 a,e,i = 1.81, 0.33, 9                   q = 1.2055
Date    TT    R. A. (2000) Decl.     Delta      r    Elong.  Phase     V
2024 03 14    13 28 42.7 +10 36 58   0.6989  1.6408   151.0    17.1    22.5
...
2024 03 29    13 16 06.9 +12 30 14   0.5961  1.5732   160.6    12.2    21.9
...
2024 04 06    13 05 35.2 +13 13 06   0.5576  1.5372   160.3    12.7    21.8
...
2024 04 12    12 56 37.1 +13 28 30   0.5362  1.5105   157.0    15.0    21.7
2024 04 13    12 55 04.9 +13 29 18   0.5333  1.5061   156.2    15.6    21.7
2024 04 14    12 53 32.4 +13 29 34   0.5305  1.5017   155.4    16.1    21.7
...
2024 04 20    12 44 22.9 +13 19 07   0.5170  1.4754   150.1    19.9    21.7
...
2024 04 28    12 33 11.6 +12 31 36   0.5072  1.4410   142.1    25.4    21.8
...
2024 05 13    12 19 10.9 +09 23 07   0.5079  1.3797   127.5    35.5    22.0
A. U. Tomatic                (C) Copyright 2024 MPC           M.P.E.C. 2024-G180
    
    
More information about the Iaude
mailing list